FW7166 Weather Reports


Display with metric or nautical units.
time (UTC)temp
F
wind
direction
speed
MPH
gust
MPH
rain 1hr
in
rain 24hr
in
rain mn
in
humidity
%
barometer
mb
20260508085012 60 42 2.0 11.0 0.00 0.00 0.00 27 1025.4
20260508084511 60 61 3.0 11.0 0.00 0.00 0.00 27 1025.4
20260508084011 60 30 2.0 11.0 0.00 0.00 0.00 28 1025.4
20260508083511 60 98 2.0 11.0 0.00 0.00 0.00 26 1025.7
20260508083011 60 128 2.0 11.0 0.00 0.00 0.00 27 1025.5
20260508081955 59 105 4.0 11.0 0.00 0.00 0.00 27 1025.5
20260508080939 58 113 3.0 11.0 0.00 0.00 0.00 28 1025.4
20260508080439 58 125 3.0 11.0 0.00 0.00 0.00 27 1025.6
20260508075938 58 107 2.0 11.0 0.00 0.00 0.00 28 1025.9
20260508075437 57 131 1.0 11.0 0.00 0.00 0.00 30 1025.6
20260508074937 57 96 3.0 11.0 0.00 0.00 0.00 29 1025.5
20260508074437 57 107 3.0 11.0 0.00 0.00 0.00 30 1025.5
20260508073936 57 142 2.0 11.0 0.00 0.00 0.00 33 1025.4
20260508073435 56 101 1.0 11.0 0.00 0.00 0.00 34 1025.4
20260508072935 55 112 3.0 11.0 0.00 0.00 0.00 35 1025.4
20260508071919 54 111 5.0 11.0 0.00 0.00 0.00 37 1025.4
20260508071419 55 112 5.0 11.0 0.00 0.00 0.00 40 1025.6
20260508070402 54 66 1.0 11.0 0.00 0.00 0.00 46 1025.3
20260508065901 53 93 2.0 11.0 0.00 0.00 0.00 49 1025.1
20260508065401 53 76 2.0 11.0 0.00 0.00 0.00 49 1025.4
20260508064900 52 107 1.0 11.0 0.00 0.00 0.00 51 1025.2
20260508064359 51 97 2.0 11.0 0.00 0.00 0.00 50 1025.5
20260508063859 51 105 3.0 11.0 0.00 0.00 0.00 52 1025.3
20260508063358 51 85 3.0 11.0 0.00 0.00 0.00 52 1025.3
20260508062858 51 119 4.0 11.0 0.00 0.00 0.00 51 1025.2
20260508062358 51 99 2.0 11.0 0.00 0.00 0.00 52 1025.2
20260508061342 50 31 1.0 11.0 0.00 0.00 0.00 52 1024.8
20260508060842 50 49 1.0 11.0 0.00 0.00 0.00 54 1024.8
20260508060342 49 46 2.0 11.0 0.00 0.00 0.00 54 1024.8
20260508055842 48 40 0.0 11.0 0.00 0.00 0.00 56 1025.0
20260508055342 48 33 1.0 11.0 0.00 0.00 0.00 56 1025.0
20260508054841 47 22 0.0 11.0 0.00 0.00 0.00 57 1024.7
20260508054340 46 78 0.0 11.0 0.00 0.00 0.00 59 1025.0
20260508053840 45 77 1.0 11.0 0.00 0.00 0.00 59 1025.0
20260508053340 44 57 0.0 11.0 0.00 0.00 0.00 61 1024.7
20260508052839 43 65 1.0 11.0 0.00 0.00 0.00 61 1024.7
20260508052339 42 51 0.0 11.0 0.00 0.00 0.00 63 1024.7
20260508051838 41 50 1.0 11.0 0.00 0.00 0.00 63 1024.9
20260508051338 41 78 1.0 11.0 0.00 0.00 0.00 64 1024.7
20260508050323 39 336 0.0 11.0 0.00 0.00 0.00 66 1024.9
20260508045822 39 315 0.0 11.0 0.00 0.00 0.00 67 1024.6
20260508045322 39 315 0.0 11.0 0.00 0.00 0.00 67 1024.5
20260508044821 38 315 0.0 11.0 0.00 0.00 0.00 69 1024.7
20260508044320 37 315 0.0 11.0 0.00 0.00 0.00 70 1024.7
20260508043819 37 315 0.0 11.0 0.00 0.00 0.00 71 1024.6
20260508043318 36 315 0.0 11.0 0.00 0.00 0.00 72 1024.5
20260508042306 36 315 0.0 11.0 0.00 0.00 0.00 75 1024.4
20260508041803 35 315 0.0 11.0 0.00 0.00 0.00 76 1024.3
20260508040233 34 315 0.0 11.0 0.00 0.00 0.00 78 1024.3
20260508035218 34 315 0.0 11.0 0.00 0.00 0.00 78 1024.0
20260508034717 34 315 0.0 11.0 0.00 0.00 0.00 78 1024.3
20260508034217 34 315 0.0 11.0 0.00 0.00 0.00 78 1024.2
20260508033716 34 315 0.0 11.0 0.00 0.00 0.00 78 1024.4
20260508033216 33 315 0.0 11.0 0.00 0.00 0.00 78 1024.1
20260508032716 33 315 0.0 11.0 0.00 0.00 0.00 78 1024.0
20260508031701 34 315 0.0 11.0 0.00 0.00 0.00 77 1024.4
20260508031201 34 315 0.0 11.0 0.00 0.00 0.00 77 1023.8
20260508030701 34 315 0.0 11.0 0.00 0.00 0.00 76 1024.1
20260508030201 34 315 0.0 11.0 0.00 0.00 0.00 76 1023.9
20260508025701 34 315 0.0 11.0 0.00 0.00 0.00 74 1023.9
20260508025201 34 315 0.0 11.0 0.00 0.00 0.00 74 1023.9
20260508024700 34 315 0.0 11.0 0.00 0.00 0.00 73 1023.8
20260508022612 35 315 0.0 11.0 0.00 0.00 0.00 72 1023.8
20260508022112 35 315 0.0 11.0 0.00 0.00 0.00 71 1023.6
20260508021612 35 315 0.0 11.0 0.00 0.00 0.00 71 1023.3
20260508021112 35 315 0.0 11.0 0.00 0.00 0.00 71 1023.2
20260508020057 36 315 0.0 11.0 0.00 0.00 0.00 70 1023.3
20260508015556 36 315 0.0 11.0 0.00 0.00 0.00 70 1023.4
20260508015056 36 315 0.0 11.0 0.00 0.00 0.00 70 1023.2
20260508014556 36 315 0.0 11.0 0.00 0.00 0.00 70 1023.4
20260508014055 36 315 0.0 11.0 0.00 0.00 0.00 70 1023.2
20260508013555 36 315 0.0 11.0 0.00 0.00 0.00 69 1023.0
20260508013055 37 315 0.0 11.0 0.00 0.00 0.00 69 1023.1
20260508012554 37 315 0.0 11.0 0.00 0.00 0.00 69 1023.1
20260508012053 37 315 0.0 11.0 0.00 0.00 0.00 69 1023.3
20260508011553 37 315 0.0 11.0 0.00 0.00 0.00 68 1023.4
20260508011053 38 315 0.0 11.0 0.00 0.00 0.00 67 1023.1
20260508010553 38 315 0.0 11.0 0.00 0.00 0.00 67 1023.2
20260508010052 38 315 0.0 11.0 0.00 0.00 0.00 66 1023.2
20260508005037 38 315 0.0 11.0 0.00 0.00 0.00 65 1022.9
20260508004537 39 315 0.0 11.0 0.00 0.00 0.00 65 1023.0
20260508003522 39 315 0.0 11.0 0.00 0.00 0.00 64 1022.6
20260508003022 39 315 0.0 11.0 0.00 0.00 0.00 64 1023.2
20260508002521 39 315 0.0 11.0 0.00 0.00 0.00 63 1022.7
20260508002021 39 315 0.0 11.0 0.00 0.00 0.00 63 1022.7
20260508001520 39 315 0.0 11.0 0.00 0.00 0.00 63 1022.7
20260508001019 40 315 0.0 11.0 0.00 0.00 0.00 62 1022.5
20260508000519 40 315 0.0 11.0 0.00 0.00 0.00 61 1022.6
20260508000018 40 315 0.0 11.0 0.00 0.00 0.00 61 1022.4
20260507235517 40 315 0.0 11.0 0.00 0.00 0.00 60 1022.5
20260507235017 40 315 0.0 11.0 0.00 0.00 0.00 60 1022.4
20260507234517 40 315 0.0 11.0 0.00 0.00 0.00 59 1022.5
20260507233500 41 315 0.0 11.0 0.00 0.00 0.00 59 1022.4
20260507233000 40 315 0.0 11.0 0.00 0.00 0.00 58 1022.0
20260507232459 41 315 0.0 11.0 0.00 0.00 0.00 58 1022.3
20260507231443 40 315 0.0 11.0 0.00 0.00 0.00 58 1021.9
20260507230943 40 315 0.0 11.0 0.00 0.00 0.00 57 1022.2
20260507230442 40 315 0.0 11.0 0.00 0.00 0.00 57 1022.1
20260507225427 41 315 0.0 11.0 0.00 0.00 0.00 58 1022.0
20260507224927 41 315 0.0 11.0 0.00 0.00 0.00 58 1021.7
20260507224427 41 315 0.0 11.0 0.00 0.00 0.00 57 1021.9
20260507223927 41 315 0.0 11.0 0.00 0.00 0.00 57 1021.7
20260507223427 42 315 0.0 11.0 0.00 0.00 0.00 56 1021.7
20260507222927 42 315 0.0 11.0 0.00 0.00 0.00 55 1021.3
20260507221910 42 315 0.0 11.0 0.00 0.00 0.00 54 1021.7
20260507221409 43 315 0.0 11.0 0.00 0.00 0.00 53 1021.7
20260507220909 44 315 0.0 11.0 0.00 0.00 0.00 52 1021.6
20260507220408 44 315 0.0 11.0 0.00 0.00 0.00 53 1021.7
20260507215908 44 315 0.0 11.0 0.00 0.00 0.00 52 1021.7
20260507215408 44 315 0.0 11.0 0.00 0.00 0.00 51 1021.5
20260507214907 45 315 0.0 11.0 0.00 0.00 0.00 50 1021.2
20260507214407 45 315 0.0 11.0 0.00 0.00 0.00 50 1021.4
20260507213906 45 315 0.0 11.0 0.00 0.00 0.00 50 1021.6
20260507213405 45 315 0.0 11.0 0.00 0.00 0.00 50 1021.5
20260507212905 46 315 0.0 11.0 0.00 0.00 0.00 50 1021.5
20260507212406 46 315 0.0 11.0 0.00 0.00 0.00 49 1021.2
20260507211905 46 315 0.0 11.0 0.00 0.00 0.00 49 1021.2
20260507211405 47 315 0.0 11.0 0.00 0.00 0.00 48 1021.2
20260507210905 47 315 0.0 11.0 0.00 0.00 0.00 47 1021.0
20260507210404 47 315 0.0 11.0 0.00 0.00 0.00 47 1021.2
20260507205904 47 315 0.0 11.0 0.00 0.00 0.00 47 1020.8
20260507204847 48 315 0.0 11.0 0.00 0.00 0.00 45 1020.8
20260507204346 48 315 0.0 11.0 0.00 0.00 0.00 45 1021.0
20260507203846 49 315 0.0 11.0 0.00 0.00 0.00 44 1020.8
20260507203345 50 315 0.0 11.0 0.00 0.00 0.00 43 1020.7
20260507202844 50 315 0.0 11.0 0.00 0.00 0.00 43 1020.5
20260507202344 51 315 0.0 11.0 0.00 0.00 0.00 41 1020.6
20260507201844 51 315 0.0 11.0 0.00 0.00 0.00 39 1020.6
20260507201343 52 315 0.0 11.0 0.00 0.00 0.00 39 1020.6
20260507200843 52 315 0.0 11.0 0.00 0.00 0.00 39 1020.6
20260507200342 52 283 0.0 11.0 0.00 0.00 0.00 38 1020.3
20260507195841 52 283 0.0 11.0 0.00 0.00 0.00 38 1020.2
20260507195341 52 283 0.0 11.0 0.00 0.00 0.00 38 1020.2
20260507194840 53 283 0.0 11.0 0.00 0.00 0.00 38 1020.1
20260507194339 53 283 0.0 11.0 0.00 0.00 0.00 39 1020.1
20260507193839 52 242 0.0 11.0 0.00 0.00 0.00 40 1020.0
20260507192307 53 249 0.0 11.0 0.00 0.00 0.00 39 1019.9
20260507191806 54 249 0.0 11.0 0.00 0.00 0.00 39 1019.6
20260507191305 54 247 0.0 11.0 0.00 0.00 0.00 38 1019.4
20260507190805 54 246 0.0 11.0 0.00 0.00 0.00 38 1019.6
20260507190305 55 215 0.0 11.0 0.00 0.00 0.00 38 1019.2
20260507185804 55 214 0.0 11.0 0.00 0.00 0.00 37 1019.3
20260507184748 56 214 0.0 11.0 0.00 0.00 0.00 35 1019.0
20260507182700 58 319 0.0 11.0 0.00 0.00 0.00 27 1018.8
20260507182200 59 319 0.0 11.0 0.00 0.00 0.00 26 1018.6
20260507181659 59 319 0.0 11.0 0.00 0.00 0.00 25 1018.9
20260507180643 59 319 0.0 11.0 0.00 0.00 0.00 25 1018.6
20260507175626 59 319 0.0 11.0 0.00 0.00 0.00 23 1018.5
20260507175127 60 319 0.0 11.0 0.00 0.00 0.00 23 1018.6
20260507174111 60 319 0.0 11.0 0.00 0.00 0.00 24 1018.3
20260507173611 60 307 1.0 11.0 0.00 0.00 0.00 23 1018.2
20260507173111 60 310 0.0 11.0 0.00 0.00 0.00 23 1018.2
20260507172609 60 310 0.0 11.0 0.00 0.00 0.00 22 1018.2
20260507172109 60 310 0.0 11.0 0.00 0.00 0.00 22 1018.4
20260507171608 61 310 0.0 11.0 0.00 0.00 0.00 22 1018.1
20260507171107 61 310 1.0 11.0 0.00 0.00 0.00 22 1018.1
20260507170606 61 310 0.0 11.0 0.00 0.00 0.00 22 1018.2
20260507170106 61 310 0.0 11.0 0.00 0.00 0.00 22 1017.8
20260507165604 62 310 1.0 11.0 0.00 0.00 0.00 21 1018.0
20260507164031 62 323 0.0 11.0 0.00 0.00 0.00 23 1017.8
20260507163531 62 324 0.0 11.0 0.00 0.00 0.00 23 1017.9
20260507163031 62 324 0.0 11.0 0.00 0.00 0.00 22 1017.9
20260507162529 62 327 1.0 11.0 0.00 0.00 0.00 23 1018.0
20260507162030 63 328 1.0 11.0 0.00 0.00 0.00 23 1018.0
20260507161528 63 313 1.0 11.0 0.00 0.00 0.00 23 1017.9
20260507161027 63 226 0.0 11.0 0.00 0.00 0.00 22 1017.8
20260507160527 63 286 0.0 11.0 0.00 0.00 0.00 23 1017.9
20260507160028 63 291 1.0 11.0 0.00 0.00 0.00 23 1017.9
20260507155527 63 296 0.0 11.0 0.00 0.00 0.00 23 1017.6
20260507154511 63 278 1.0 11.0 0.00 0.00 0.00 23 1017.7
20260507154010 62 265 1.0 11.0 0.00 0.00 0.00 22 1017.7
20260507153508 63 331 1.0 11.0 0.00 0.00 0.00 22 1017.5
20260507153009 63 239 0.0 11.0 0.00 0.00 0.00 23 1017.8
20260507152509 62 25 1.0 11.0 0.00 0.00 0.00 22 1017.6
20260507152009 62 301 1.0 11.0 0.00 0.00 0.00 24 1017.7
20260507151507 63 252 1.0 11.0 0.00 0.00 0.00 22 1017.6
20260507150452 62 322 0.0 11.0 0.00 0.00 0.00 23 1017.7
20260507145950 62 327 1.0 11.0 0.00 0.00 0.00 24 1017.5
20260507145449 62 304 2.0 11.0 0.00 0.00 0.00 23 1017.3
20260507144434 64 222 1.0 11.0 0.00 0.00 0.00 22 1017.4
20260507143933 63 165 1.0 11.0 0.00 0.00 0.00 21 1017.5
20260507143433 63 204 1.0 11.0 0.00 0.00 0.00 23 1017.7
20260507142931 62 151 1.0 11.0 0.00 0.00 0.00 23 1017.7
20260507142431 62 193 1.0 11.0 0.00 0.00 0.00 22 1017.7
20260507141930 62 141 2.0 11.0 0.00 0.00 0.00 23 1017.7
20260507141429 62 232 3.0 11.0 0.00 0.00 0.00 22 1017.6
20260507140928 62 232 1.0 11.0 0.00 0.00 0.00 22 1017.7
20260507140428 62 155 1.0 11.0 0.00 0.00 0.00 24 1017.6
20260507135927 62 56 1.0 11.0 0.00 0.00 0.00 22 1017.6
20260507135426 62 300 0.0 11.0 0.00 0.00 0.00 23 1017.5
20260507134926 62 325 2.0 11.0 0.00 0.00 0.00 22 1017.5
20260507133910 61 282 1.0 11.0 0.00 0.00 0.00 22 1017.4
20260507133410 61 263 1.0 11.0 0.00 0.00 0.00 23 1017.5
20260507132909 61 302 2.0 11.0 0.00 0.00 0.00 22 1017.9
20260507132408 61 347 2.0 11.0 0.00 0.00 0.00 23 1017.8
20260507131907 61 281 2.0 11.0 0.00 0.00 0.00 22 1017.5
20260507131406 61 315 2.0 11.0 0.00 0.00 0.00 22 1017.8
20260507130350 61 241 1.0 11.0 0.00 0.00 0.00 24 1017.5
20260507125334 61 234 2.0 11.0 0.00 0.00 0.00 23 1017.4
20260507124833 61 201 2.0 11.0 0.00 0.00 0.00 22 1017.5
20260507124332 60 196 1.0 11.0 0.00 0.00 0.00 22 1017.6
20260507123831 60 231 1.0 11.0 0.00 0.00 0.00 22 1017.6
20260507123330 60 249 2.0 11.0 0.00 0.00 0.00 24 1017.5
20260507122829 60 238 2.0 11.0 0.00 0.00 0.00 22 1017.2
20260507122328 60 180 1.0 11.0 0.00 0.00 0.00 22 1017.8
20260507121828 60 272 1.0 11.0 0.00 0.00 0.00 23 1017.6
20260507121327 60 201 1.0 11.0 0.00 0.00 0.00 22 1017.2
20260507120827 59 233 2.0 11.0 0.00 0.00 0.00 21 1017.8
20260507120327 60 259 2.0 11.0 0.00 0.00 0.00 22 1017.4
20260507115827 60 201 1.0 11.0 0.00 0.00 0.00 21 1017.4
20260507115327 60 27 1.0 11.0 0.00 0.00 0.00 20 1017.6
20260507114826 60 168 1.0 11.0 0.00 0.00 0.00 19 1017.3
20260507114326 60 175 2.0 11.0 0.00 0.00 0.00 21 1017.5
20260507113825 60 158 1.0 11.0 0.00 0.00 0.00 21 1017.4
20260507113324 59 179 0.0 11.0 0.00 0.00 0.00 22 1017.6
20260507112824 58 185 3.0 11.0 0.00 0.00 0.00 20 1017.3
20260507112323 58 188 2.0 11.0 0.00 0.00 0.00 22 1017.6
20260507111822 58 177 2.0 11.0 0.00 0.00 0.00 23 1017.5
20260507111322 58 216 2.0 11.0 0.00 0.00 0.00 22 1017.5
20260507110821 58 241 3.0 11.0 0.00 0.00 0.00 23 1017.3
20260507110320 58 42 1.0 11.0 0.00 0.00 0.00 26 1017.9
20260507105820 58 299 3.0 11.0 0.00 0.00 0.00 24 1017.5
20260507105319 58 144 0.0 11.0 0.00 0.00 0.00 24 1017.1
20260507104302 57 306 1.0 11.0 0.00 0.00 0.00 26 1017.5
20260507103800 57 282 2.0 11.0 0.00 0.00 0.00 24 1017.4
20260507103300 58 289 2.0 11.0 0.00 0.00 0.00 25 1017.6
20260507102244 58 12 1.0 11.0 0.00 0.00 0.00 29 1017.3
20260507101744 57 252 1.0 11.0 0.00 0.00 0.00 31 1017.4
20260507101243 57 212 2.0 11.0 0.00 0.00 0.00 28 1017.5
20260507100741 57 305 0.0 11.0 0.00 0.00 0.00 30 1017.5
20260507100241 57 241 1.0 11.0 0.00 0.00 0.00 30 1017.4
20260507095740 57 98 1.0 11.0 0.00 0.00 0.00 28 1017.3
20260507095239 56 243 1.0 11.0 0.00 0.00 0.00 29 1017.6
20260507094738 56 293 1.0 11.0 0.00 0.00 0.00 30 1017.3
20260507093721 56 327 2.0 11.0 0.00 0.00 0.00 28 1017.3
20260507093220 55 34 0.0 11.0 0.00 0.00 0.00 29 1017.4
20260507092719 55 303 1.0 11.0 0.00 0.00 0.00 28 1017.2
20260507091703 54 222 1.0 11.0 0.00 0.00 0.00 26 1017.3
20260507091203 54 272 1.0 11.0 0.00 0.00 0.00 31 1017.5
20260507090702 54 233 0.0 11.0 0.00 0.00 0.00 34 1017.4
20260507090202 54 220 1.0 11.0 0.00 0.00 0.00 35 1017.3
20260507085702 54 280 0.0 11.0 0.00 0.00 0.00 33 1017.5